Powrót do katalogu

SL-16 DEB

AktywnyLEO
NORAD 19127·DEBRIS·🇷🇺 Russia

Wystrzelony May 15, 1988 z Baikonur Cosmodrome

Loading…

Następne Przeloty (najbliższe 24 godziny)

TLE

ŚwieżeSource: Space-Track

Epoka: Sep 14, 2026, 05:19 UTC

1 19127U 88039E   26257.22184403  .00000042  00000-0  78074-4 0  9990
2 19127  70.9878  63.9825 0206248 103.7989  67.9363 13.72810700918936

Śledź SL-16 DEB w czasie rzeczywistym z AllMySat

Download on the App Store